TimeCST,TemperatureF,Dew PointF,Humidity,Sea Level PressureIn,VisibilityMPH,Wind Direction,Wind SpeedMPH,Gust SpeedMPH,PrecipitationIn,Events,Conditions,WindDirDegrees,DateUTC
12:54 AM,19.0,16.0,88,30.38,6.0,ESE,6.9,-,N/A,,Clear,120,2013-03-08 06:54:00
1:54 AM,18.0,15.1,88,30.36,7.0,ESE,8.1,-,N/A,,Clear,120,2013-03-08 07:54:00
2:54 AM,15.1,12.9,91,30.37,7.0,East,6.9,-,N/A,,Clear,90,2013-03-08 08:54:00
3:54 AM,16.0,12.9,88,30.36,6.0,ESE,6.9,-,N/A,,Clear,110,2013-03-08 09:54:00
4:54 AM,18.0,15.1,88,30.36,6.0,ESE,6.9,-,N/A,,Clear,120,2013-03-08 10:54:00
5:54 AM,19.9,17.1,89,30.36,5.0,SE,6.9,-,N/A,,Clear,130,2013-03-08 11:54:00
6:54 AM,21.0,18.0,88,30.36,4.0,ESE,8.1,-,N/A,,Clear,120,2013-03-08 12:54:00
7:54 AM,24.1,19.9,84,30.36,4.0,SE,9.2,-,N/A,,Clear,130,2013-03-08 13:54:00
8:54 AM,27.0,21.9,81,30.36,5.0,SE,10.4,-,N/A,,Haze,130,2013-03-08 14:54:00
9:54 AM,30.9,25.0,79,30.35,8.0,SSE,13.8,-,N/A,,Clear,150,2013-03-08 15:54:00
10:54 AM,33.1,26.1,75,30.34,9.0,SSE,18.4,24.2,N/A,,Clear,160,2013-03-08 16:54:00
11:54 AM,35.1,27.0,72,30.34,9.0,SSE,16.1,-,N/A,,Clear,150,2013-03-08 17:54:00
12:54 PM,37.0,28.0,70,30.31,9.0,SSE,15.0,21.9,N/A,,Clear,150,2013-03-08 18:54:00
1:54 PM,37.9,28.0,68,30.28,8.0,SE,11.5,-,N/A,,Clear,140,2013-03-08 19:54:00
2:54 PM,35.1,28.9,78,30.28,6.0,East,11.5,-,N/A,,Haze,100,2013-03-08 20:54:00
3:54 PM,35.1,30.0,82,30.28,6.0,East,8.1,-,N/A,,Haze,100,2013-03-08 21:54:00
4:54 PM,35.1,28.9,78,30.27,6.0,ESE,10.4,-,N/A,,Haze,110,2013-03-08 22:54:00
5:54 PM,34.0,28.9,82,30.26,6.0,East,12.7,-,N/A,,Haze,90,2013-03-08 23:54:00
6:54 PM,34.0,28.9,82,30.23,7.0,ESE,15.0,-,N/A,,Clear,120,2013-03-09 00:54:00
7:54 PM,34.0,28.9,82,30.22,8.0,SE,15.0,24.2,N/A,,Clear,130,2013-03-09 01:54:00
8:54 PM,34.0,28.9,82,30.20,7.0,ESE,11.5,-,N/A,,Clear,110,2013-03-09 02:54:00
9:54 PM,34.0,28.9,82,30.19,7.0,ESE,15.0,-,N/A,,Mostly Cloudy,120,2013-03-09 03:54:00
10:54 PM,34.0,28.9,82,30.17,8.0,SE,13.8,-,N/A,,Overcast,130,2013-03-09 04:54:00
11:54 PM,34.0,30.0,85,30.14,7.0,SE,12.7,-,0.00,,Overcast,130,2013-03-09 05:54:00